COSMOS 1275 DEB

Satellite information

Favourite Embed

Satellite Type and Status

DEBRISIN ORBIT

Key statistics

Satellite COSMOS 1275 DEB at a glance.

Uptime

16264

Days in orbit

Revolutions

≈ 14.2

Per day

Orbit

LEO

Low Earth Orbit

Inclination

83.1

Latest

Satellite identification and parameters

Extended collection of information and parameters for COSMOS 1275 DEB.

Object identification

Identified? True

Debris? True

Object name: COSMOS 1275 DEB

International designator: 1981-053RK

Object number (NORAD): 42147

Object ID (CCSDS): 42147

Country: COMMONWEALTH OF INDEPENDENT STATES (CIS)

Current information (Y/N): Y

RCS size: SMALL

Orbital parameters

Period: 101.196 minutes

Inclination: 83.0648 deg

SMA: 7193.419 km

Apoapsis: 828.649 km

Periapsis: 801.919 km

RAAN: 41.0336 deg

Eccentricy: 0.00185792

Argument of periapsis: 268.6475 deg

Mean anomaly: 91.258 deg

Mean motion: 14.22983076 rev/day

Mean motion (dot): 0.00003393 rev/day2

B* drag term: 0.0014977893 1/REarth

Two-line elements (TLE)

Creation date: Dec. 13, 2025, 4:32 a.m.

Reference frame: TEME

Reference center: EARTH

Epoch: Dec. 12, 2025, 9:15 p.m. UTC

TLE line 0: 0 COSMOS 1275 DEB

TLE line 1: 1 42147U 81053RK 25346.88557505 .00003393 00000-0 14978-2 0 9997

TLE line 2: 2 42147 83.0648 41.0336 0018579 268.6475 91.2580 14.22983076622517

Live tracking on map

Real-time ground track for satellite COSMOS 1275 DEB.

In-orbit conjunctions

A list of the most updated potential collisions computed for object COSMOS 1275 DEB.

Target Orbit TCA Probability of collision Miss distance Type
SAFIR 2 SSO 2025-10-22 18:41:42 0.0002285405 298.0 (m) PAYLOAD
FENGYUN 1C DEB SSO 2025-10-02 05:59:43 0.0001111456 197.0 (m) DEBRIS
CZ-4B R/B SSO 2025-08-04 02:36:32 0.0001801247 436.0 (m) ROCKET BODY
FENGYUN 1C DEB SSO 2025-01-08 12:20:39 0.000166131 108.0 (m) DEBRIS

Associated space launch

Navigation satellite providing location information for the Tsiklon-B navigation system

COSMOS 1275 DEB was lifted into orbit during the mission ‘Kosmos-3M | Parus 27’, on board a Kosmos-3M space rocket.

The launch took place on June 4, 1981, 3:41 p.m. from 132/2.

For more information about the launch, click the button.

Launch to space Kosmos-3M | Parus 27
Kosmos-3M | Parus 27

Agency: N/A

Status: Launch Successful

Launch date: June 4, 1981, 3:41 p.m. UTC

Rocket: Kosmos-3M

Launch pad: 132/2

Location: Plesetsk Cosmodrome, Russian Federation

...

Latest news about this satellite

There are no fresh news available about this satellite. Check back as we update our databases every day.


Newsletter sign-up

Weekly statistics, charts and insights to help you stay on top of the space industry.